• MPC Preparation (Info)

  • MPEC 2015-K10 : 2015 JH2

    The following Minor Planet Electronic Circular may be linked-to from your own Web pages, but must not otherwise be redistributed electronically.

    A form allowing access to any MPEC is at the bottom of this page.


    Read MPEC 2015-K09 Read MPEC 2015-K11


    M.P.E.C. 2015-K10                                Issued 2015 May 17, 14:07 UT
    
         The Minor Planet Electronic Circulars contain information on unusual
             minor planets and routine data on comets.  They are published
       on behalf of Commission 20 of the International Astronomical Union by the
              Minor Planet Center, Smithsonian Astrophysical Observatory,
                              Cambridge, MA 02138, U.S.A.
    
                 Prepared using the Tamkin Foundation Computer Network
    
                                  MPC@CFA.HARVARD.EDU
                URL https://www.minorplanetcenter.net/    ISSN 1523-6714
    
                                       2015 JH2
    
    Observations:
         K15J02H* C2015 05 14.47151 16 31 38.858+02 27 34.53         21.4 wLEK010F51
         K15J02H  C2015 05 14.48491 16 31 39.701+02 27 51.60         21.5 wLEK010F51
         K15J02H  C2015 05 14.49807 16 31 40.531+02 28 07.90         21.2 wLEK010F51
         K15J02H  C2015 05 14.51129 16 31 41.394+02 28 24.63         21.4 wLEK010F51
         K15J02H _C2015 05 15.53276316 32 59.650+02 49 57.43         20.2 RtEK010568
         K15J02H _C2015 05 15.53407016 32 59.734+02 49 59.06         20.8 RtEK010568
         K15J02H _C2015 05 15.53540816 32 59.823+02 50 00.79         20.2 RtEK010568
         K15J02H |C2015 05 16.19002 16 33 52.40 +03 04 26.5          21.1 VuEK010807
         K15J02H |C2015 05 16.19875 16 33 53.02 +03 04 37.6          21.0 VuEK010807
         K15J02H |C2015 05 16.20741 16 33 53.58 +03 04 48.8          21.1 VuEK010807
         K15J02H |C2015 05 17.19643 16 35 12.46 +03 26 09.5          21.1 VuEK010807
         K15J02H |C2015 05 17.20454 16 35 13.01 +03 26 20.3          21.0 VuEK010807
         K15J02H |C2015 05 17.21261 16 35 13.59 +03 26 30.3          21.0 VuEK010807
    
    Observer details:
    568 Mauna Kea.  Observers R. J. Wainscoat, D. Woodworth.  Measurers M. Micheli,
        R. J. Wainscoat.  3.6-m Canada-France-Hawaii Telescope + CCD.
    807 Cerro Tololo.  Observers T. Linder, R. Holmes.  0.41-m f/11
        Ritchey-Chretien + CCD.
    F51 Pan-STARRS 1, Haleakala.  Observers R. Anderson, B. Gibson, T. Goggia,
        N. Primak, A. Schultz, M. Willman.  Measurers K. Chambers, S. Chastel,
        L. Denneau, H. Flewelling, M. Huber, E. Magnier, E. Schunova, R. Wainscoat,
        C. Waters, R. Weryk.  1.8-m Ritchey-Chretien + CCD.
    
    Orbital elements:
    2015 JH2                                                 Earth MOID = 0.0574 AU
    Epoch 2015 June 27.0 TT = JDT 2457200.5                 MPC
    M 353.99068              (2000.0)            P               Q
    n   0.34736129     Peri.  158.91731     +0.41310799     +0.90851245
    a   2.0042341      Node   135.41917     -0.84781900     +0.40886184
    e   0.4682131      Incl.    5.13511     -0.33248269     +0.08623882
    P   2.84           H   22.4           G   0.15           U   8
    Residuals in seconds of arc
    150514 F51  0.1+  0.1-    150515 568  0.2-  0.0     150517 807  0.1-  0.1+
    150514 F51  0.1-  0.1+    150515 568  0.1-  0.1+    150517 807  0.2-  0.3+
    150514 F51  0.1-  0.1-    150516 807  0.1-  0.0     150517 807  0.2+  0.3-
    150514 F51  0.2+  0.1+    150516 807  0.4+  0.1-
    150515 568  0.1-  0.1+    150516 807  0.1+  0.1-
    
    Ephemeris:
    2015 JH2                 a,e,i = 2.00, 0.47, 5                   q = 1.0658
    Date    TT    R. A. (2000) Decl.     Delta      r     Elong.  Phase     V
    2015 04 17    15 59 54.2 -05 05 44   0.4810  1.4230   144.5    24.2    22.7
    ...
    2015 05 02    16 16 57.1 -01 28 48   0.3559  1.3308   151.3    21.3    21.8
    ...
    2015 05 10    16 26 09.7 +00 57 12   0.3001  1.2841   152.9    21.0    21.4
    ...
    2015 05 16    16 33 36.8 +03 00 03   0.2628  1.2507   152.9    21.6    21.0
    2015 05 17    16 34 56.1 +03 21 34   0.2570  1.2453   152.8    21.8    21.0
    2015 05 18    16 36 17.2 +03 43 22   0.2512  1.2400   152.7    22.0    20.9
    ...
    2015 05 24    16 45 14.3 +05 59 39   0.2187  1.2089   151.2    23.8    20.6
    ...
    2015 06 01    17 00 40.3 +09 14 54   0.1804  1.1709   148.1    27.2    20.2
    ...
    2015 06 16    17 51 47.5 +15 51 48   0.1220  1.1129   140.6    35.4    19.5
    
    A. U. Tomatic                (C) Copyright 2015 MPC           M.P.E.C. 2015-K10
    

    Read MPEC 2015-K09 Read MPEC 2015-K11


    MPEC number:

    Enter an MPEC number in one of the following forms:

    • 1997-B01 (the full form)
    • J97B01 (the packed version of the full form)
    • B01 (the abbreviated form)